Voltar ao catálogo

FENGYUN 1C DEB

AtivoSSO
NORAD 37911·DEBRIS·🇨🇳 China

Lançado May 10, 1999 de Taiyuan Satellite Launch Center

Loading…

Próximas Passagens (próximas 24 horas)

TLE

AtualizadoSource: Space-Track

Época: Sep 13, 2026, 16:34 UTC

1 37911U 99025ENL 26256.69067250  .00001632  00000-0  10771-2 0  9992
2 37911  99.2886 344.3977 0138595  78.2727 283.3948 13.98581827805514

Acompanhe FENGYUN 1C DEB em tempo real com AllMySat

Download on the App Store